Weather History for KVVV - March, 2013

Change the Weather History Date:

Sunday, March 3, 2013

  Actual Average (KAQP) Record (KAQP)
Temperature  
Mean Temperature 22 °F -  
Max Temperature 30 °F 24 °F 37 °F (2005)
Min Temperature 14 °F 9 °F -9 °F (2002)
Degree Days  
Heating Degree Days 43    
Moisture  
Dew Point 17 °F    
Average Humidity 81    
Maximum Humidity 93    
Minimum Humidity 69    
Precipitation  
Precipitation 0.00 in - - ()
Sea Level Pressure  
Sea Level Pressure 29.91 in    
Wind  
Wind Speed 13 mph (SE)    
Max Wind Speed 25 mph    
Max Gust Speed 32 mph    
Visibility 9 miles    
Events Snow    
Averages and records for this station are not official NWS values.
T = Trace of Precipitation, MM = Missing Value Source: NWS Daily Summary

Daily Weather History Graph

Daily Weather History Graph

Search for Another Location

Airport or City:

Trip Planner

Search our weather history database for the weather conditions in past years. The results will help you decide how hot, cold, wet, or windy it might be!

Date:

Astronomy

Mar. 03, 2013 Rise Set
Actual Time 6:59 AM CST 6:16 PM CST
Civil Twilight 6:30 AM CST 6:45 PM CST
Nautical Twilight 5:56 AM CST 7:19 PM CST
Astronomical Twilight 5:21 AM CST 7:54 PM CST
Moon 12:13 AM CST (3/3) 9:57 AM CST (3/3)
Length of Visible Light 12h 15m
Length of Day
11h 16m
Waning Gibbous, 63% of the Moon is Illuminated
Mar 3
Waning Gibbous
Mar 4
Last Quarter
Mar 11
New
Mar 19
First Quarter
Mar 27
Full

Hourly Weather History & Observations

Time (CST) Temp. Windchill Dew Point Humidity Pressure Visibility Wind Dir Wind Speed Gust Speed Precip Events Conditions
12:14 AM 15.8 °F 4.2 °F 12.2 °F 86% 30.05 in 10.0 mi SE 9.2 mph - N/A   Clear
12:34 AM 15.8 °F 5.1 °F 12.2 °F 86% 30.05 in 10.0 mi SE 8.1 mph - N/A   Clear
12:54 AM 17.6 °F 7.3 °F 12.2 °F 79% 30.04 in 10.0 mi ESE 8.1 mph - N/A   Clear
1:14 AM 15.8 °F 5.1 °F 12.2 °F 86% 30.04 in 10.0 mi ESE 8.1 mph - N/A   Clear
1:34 AM 15.8 °F 5.1 °F 12.2 °F 86% 30.03 in 10.0 mi ESE 8.1 mph - N/A   Clear
1:53 AM 15.8 °F 4.2 °F 12.2 °F 86% 30.03 in 10.0 mi ESE 9.2 mph - N/A   Clear
2:14 AM 17.6 °F 6.4 °F 14.0 °F 86% 30.03 in 10.0 mi ESE 9.2 mph - N/A   Clear
2:34 AM 17.6 °F 6.4 °F 14.0 °F 86% 30.02 in 10.0 mi ESE 9.2 mph - N/A   Clear
2:54 AM 17.6 °F 5.7 °F 14.0 °F 86% 30.01 in 10.0 mi ESE 10.4 mph - N/A   Clear
3:14 AM 15.8 °F 4.2 °F 12.2 °F 86% 30.00 in 10.0 mi ESE 9.2 mph - N/A   Clear
3:33 AM 15.8 °F 4.2 °F 12.2 °F 86% 29.99 in 10.0 mi ESE 9.2 mph - N/A   Clear
3:54 AM 15.8 °F 4.2 °F 12.2 °F 86% 29.99 in 10.0 mi ESE 9.2 mph - N/A   Clear
4:14 AM 15.8 °F 4.2 °F 12.2 °F 86% 29.99 in 10.0 mi ESE 9.2 mph - N/A   Clear
4:33 AM 15.8 °F 3.4 °F 12.2 °F 86% 29.99 in 10.0 mi ESE 10.4 mph - N/A   Clear
4:54 AM 15.8 °F 5.1 °F 12.2 °F 86% 29.99 in 10.0 mi SE 8.1 mph - N/A   Clear
5:14 AM 15.8 °F 5.1 °F 12.2 °F 86% 29.99 in 10.0 mi SE 8.1 mph - N/A   Clear
5:33 AM 14.0 °F 3.9 °F 10.4 °F 86% 29.99 in 10.0 mi SE 6.9 mph - N/A   Clear
5:54 AM 14.0 °F 5.1 °F 10.4 °F 86% 29.99 in 10.0 mi SE 5.8 mph - N/A   Clear
6:13 AM 14.0 °F 3.9 °F 12.2 °F 93% 29.98 in 10.0 mi ESE 6.9 mph - N/A   Clear
6:54 AM 14.0 °F 2.9 °F 10.4 °F 86% 29.98 in 10.0 mi ESE 8.1 mph - N/A   Clear
7:14 AM 14.0 °F 3.9 °F 10.4 °F 86% 29.98 in 10.0 mi ESE 6.9 mph - N/A   Clear
7:34 AM 14.0 °F 2.9 °F 10.4 °F 86% 29.98 in 10.0 mi SE 8.1 mph - N/A   Clear
7:54 AM 15.8 °F 4.2 °F 12.2 °F 86% 29.96 in 10.0 mi SE 9.2 mph - N/A   Clear
8:13 AM 15.8 °F 4.2 °F 12.2 °F 86% 29.96 in 10.0 mi SE 9.2 mph - N/A   Clear
8:34 AM 15.8 °F 4.2 °F 12.2 °F 86% 29.96 in 10.0 mi SE 9.2 mph - N/A   Clear
8:54 AM 17.6 °F 6.4 °F 12.2 °F 79% 29.95 in 10.0 mi SE 9.2 mph - N/A   Clear
9:13 AM 19.4 °F 7.9 °F 14.0 °F 80% 29.95 in 10.0 mi SE 10.4 mph - N/A   Clear
9:34 AM 19.4 °F 7.9 °F 15.8 °F 86% 29.95 in 10.0 mi SE 10.4 mph - N/A   Clear
9:54 AM 21.2 °F 8.3 °F 15.8 °F 80% 29.94 in 10.0 mi SE 13.8 mph - N/A   Clear
10:13 AM 21.2 °F 7.8 °F 17.6 °F 86% 29.94 in 10.0 mi SE 15.0 mph - N/A   Clear
10:34 AM 23.0 °F 9.2 °F 17.6 °F 80% 29.93 in 10.0 mi SE 17.3 mph - N/A   Clear
10:54 AM 24.8 °F 10.7 °F 17.6 °F 74% 29.92 in 10.0 mi SE 19.6 mph - N/A   Clear
11:14 AM 24.8 °F 11.1 °F 19.4 °F 80% 29.92 in 10.0 mi SE 18.4 mph - N/A   Clear
11:34 AM 24.8 °F 12.4 °F 19.4 °F 80% 29.92 in 10.0 mi SE 15.0 mph 23.0 mph N/A   Clear
11:53 AM 26.6 °F 13.1 °F 19.4 °F 74% 29.91 in 10.0 mi SE 19.6 mph - N/A   Clear
12:14 PM 26.6 °F 13.4 °F 21.2 °F 80% 29.91 in 10.0 mi SE 18.4 mph 23.0 mph N/A   Clear
12:34 PM 26.6 °F 13.8 °F 21.2 °F 80% 29.90 in 10.0 mi SE 17.3 mph 21.9 mph N/A   Clear
12:53 PM 28.4 °F 16.2 °F 21.2 °F 74% 29.89 in 10.0 mi SE 17.3 mph 25.3 mph N/A   Clear
1:14 PM 28.4 °F 15.8 °F 21.2 °F 74% 29.88 in 10.0 mi SE 18.4 mph 26.5 mph N/A   Clear
1:53 PM 28.4 °F 16.2 °F 23.0 °F 80% 29.87 in 7.0 mi SE 17.3 mph - N/A   Scattered Clouds
2:14 PM 28.4 °F 16.6 °F 23.0 °F 80% 29.86 in 10.0 mi SE 16.1 mph 27.6 mph N/A   Mostly Cloudy
2:34 PM 30.2 °F 16.8 °F 23.0 °F 75% 29.85 in 7.0 mi SE 23.0 mph 26.5 mph N/A   Mostly Cloudy
2:54 PM 30.2 °F 17.4 °F 24.8 °F 80% 29.85 in 7.0 mi SE 20.7 mph 25.3 mph N/A   Scattered Clouds
3:14 PM 30.2 °F 17.4 °F 23.0 °F 75% 29.84 in 7.0 mi SE 20.7 mph 28.8 mph N/A   Clear
3:33 PM 30.2 °F 17.1 °F 23.0 °F 75% 29.83 in 10.0 mi SE 21.9 mph 26.5 mph N/A   Clear
3:54 PM 30.2 °F 17.1 °F 23.0 °F 75% 29.83 in 10.0 mi SE 21.9 mph 27.6 mph N/A   Clear
4:14 PM 30.2 °F 17.4 °F 23.0 °F 75% 29.83 in 10.0 mi SE 20.7 mph 26.5 mph N/A   Clear
4:34 PM 30.2 °F 16.5 °F 21.2 °F 69% 29.82 in 10.0 mi SE 24.2 mph 29.9 mph N/A   Clear
4:54 PM 30.2 °F 17.4 °F 21.2 °F 69% 29.83 in 10.0 mi SE 20.7 mph 28.8 mph N/A   Clear
5:14 PM 30.2 °F 17.4 °F 23.0 °F 75% 29.83 in 10.0 mi SE 20.7 mph 26.5 mph N/A   Clear
5:34 PM 30.2 °F 19.8 °F 23.0 °F 75% 29.83 in 10.0 mi ESE 13.8 mph - N/A   Clear
5:54 PM 28.4 °F 17.0 °F 21.2 °F 74% 29.83 in 10.0 mi ESE 15.0 mph - N/A   Clear
6:34 PM 28.4 °F 16.2 °F 21.2 °F 74% 29.83 in 10.0 mi ESE 17.3 mph 23.0 mph N/A   Clear
6:54 PM 26.6 °F 13.8 °F 19.4 °F 74% 29.83 in 10.0 mi ESE 17.3 mph 24.2 mph N/A   Clear
7:14 PM 26.6 °F 13.4 °F 19.4 °F 74% 29.83 in 10.0 mi ESE 18.4 mph 25.3 mph N/A   Mostly Cloudy
7:33 PM 26.6 °F 12.7 °F 19.4 °F 74% 29.83 in 10.0 mi ESE 20.7 mph 25.3 mph N/A   Overcast
7:54 PM 26.6 °F 13.1 °F 19.4 °F 74% 29.83 in 10.0 mi ESE 19.6 mph 24.2 mph N/A   Overcast
8:13 PM 26.6 °F 12.4 °F 19.4 °F 74% 29.83 in 10.0 mi ESE 21.9 mph 26.5 mph N/A   Overcast
8:34 PM 26.6 °F 13.1 °F 17.6 °F 69% 29.83 in 10.0 mi ESE 19.6 mph 26.5 mph N/A   Overcast
9:13 PM 26.6 °F 12.7 °F 19.4 °F 74% 29.83 in 10.0 mi SE 20.7 mph 25.3 mph N/A   Overcast
9:34 PM 26.6 °F 12.7 °F 19.4 °F 74% 29.82 in 10.0 mi SE 20.7 mph 26.5 mph N/A   Overcast
9:54 PM 26.6 °F 12.4 °F 19.4 °F 74% 29.83 in 7.0 mi SE 21.9 mph 26.5 mph N/A   Overcast
10:14 PM 24.8 °F 10.0 °F 21.2 °F 86% 29.82 in 5.0 mi SE 21.9 mph 26.5 mph N/A   Overcast
10:34 PM 24.8 °F 9.0 °F 21.2 °F 86% 29.82 in 2.0 mi SE 25.3 mph 31.1 mph N/A Snow Light Snow
10:53 PM 24.8 °F 10.3 °F 21.2 °F 86% 29.81 in 3.0 mi SE 20.7 mph 28.8 mph N/A Snow Light Snow
11:14 PM 24.8 °F 9.3 °F 21.2 °F 86% 29.81 in 2.5 mi SE 24.2 mph 32.2 mph N/A   Scattered Clouds
11:34 PM 24.8 °F 9.6 °F 21.2 °F 86% 29.81 in 2.0 mi SE 23.0 mph 31.1 mph N/A Snow Light Snow
11:53 PM 24.8 °F 9.3 °F 21.2 °F 86% 29.81 in 1.5 mi SE 24.2 mph 27.6 mph N/A Snow Light Snow